Date String (YYYY-MM-DD hh:mm:ss) UTC,Instrument flags,Ambient pressure (hPa),Sample flow (lpm),Bypass flow (lpm),Sample temperature (°C),Ambient temperature (°C),ASC tube jacket temperature (°C),LED temperature (°C),Box temperature (°C),Sample RH (%),Span deviation,Mass concentration (μg/m³),Mass concentration (μg/m³),Mass concentration (μg/m³)
DateTimeUTC,F1_M11,P_M11,Q1_M11,Q2_M11,T1_M11,T2_M11,T3_M11,T4_M11,T5_M11,U1_M11,ZSPAN_M11,X0_M11,X2_M11,X1_M11
2023-02-11 19:00:00,,0824.7,5.02,0.00,24.5,23.4,00.0,33.2,26.4,11.9,0000.0,0022.76,0010.39,0008.84
2023-02-11 19:01:00,,0824.6,5.00,0.00,24.5,23.4,00.0,33.2,26.4,11.8,0000.0,0022.49,0010.36,0008.79
2023-02-11 19:02:00,,0824.6,5.00,0.00,24.5,23.4,00.0,33.2,26.4,11.9,0000.0,0022.27,0010.26,0008.70
2023-02-11 19:03:00,,0824.7,4.98,0.00,24.5,23.4,00.0,33.2,26.4,11.8,0000.0,0021.67,0010.19,0008.65
2023-02-11 19:04:00,,0824.8,4.99,0.00,24.5,23.4,00.0,33.3,26.4,11.5,0000.0,0021.24,0010.06,0008.58
2023-02-11 19:05:00,,0824.7,5.00,0.00,24.6,23.4,00.0,33.3,26.4,11.6,0000.0,0020.50,0009.94,0008.49
2023-02-11 19:06:00,,0824.6,5.00,0.00,24.6,23.4,00.0,33.3,26.5,11.4,0000.9,0019.67,0009.77,0008.36
2023-02-11 19:07:00,,0824.6,4.99,0.00,24.6,23.5,00.0,33.3,26.5,11.2,0000.4,0018.93,0009.60,0008.21
2023-02-11 19:08:00,,0824.4,5.01,0.00,24.6,23.5,00.0,33.3,26.5,11.5,0000.7,0018.05,0009.39,0008.04
2023-02-11 19:09:00,,0824.4,4.99,0.00,24.6,23.5,00.0,33.3,26.5,11.4,0000.1,0017.21,0009.07,0007.85
2023-02-11 19:10:00,,0824.4,4.99,0.00,24.6,23.5,00.0,33.3,26.5,11.4,0001.6,0017.14,0008.89,0007.72
2023-02-11 19:11:00,,0824.4,5.00,0.00,24.6,23.5,00.0,33.3,26.5,11.4,0002.0,0016.63,0008.71,0007.58
2023-02-11 19:12:00,,0824.4,5.00,0.00,24.7,23.5,00.0,33.4,26.6,11.3,0001.6,0016.78,0008.59,0007.46
2023-02-11 19:13:00,,0824.4,4.96,0.00,24.7,23.5,00.0,33.4,26.6,11.2,0001.2,0016.71,0008.46,0007.34
2023-02-11 19:14:00,,0824.4,5.04,0.00,24.7,23.5,00.0,33.4,26.6,11.0,0001.7,0016.18,0008.22,0007.15
2023-02-11 19:15:00,,0824.4,4.96,0.00,24.7,23.5,00.0,33.4,26.6,11.2,0001.4,0015.97,0008.04,0006.95
2023-02-11 19:16:00,,0824.4,4.97,0.00,24.7,23.5,00.0,33.4,26.6,11.1,0000.0,0015.41,0007.82,0006.78
2023-02-11 19:17:00,,0824.4,5.05,0.00,24.7,23.5,00.0,33.4,26.6,11.2,0000.0,0014.57,0007.64,0006.63
2023-02-11 19:18:00,,0824.4,5.01,0.00,24.7,23.6,00.0,33.4,26.6,10.8,0000.0,0013.89,0007.46,0006.50
2023-02-11 19:19:00,,0824.4,4.98,0.00,24.7,23.6,00.0,33.4,26.6,10.6,0000.0,0013.49,0007.35,0006.36
2023-02-11 19:20:00,,0824.4,5.04,0.00,24.7,23.6,00.0,33.4,26.7,10.5,0000.0,0013.88,0007.28,0006.25
2023-02-11 19:21:00,,0824.4,4.96,0.00,24.7,23.6,00.0,33.5,26.7,10.5,0000.0,0013.46,0007.14,0006.13
2023-02-11 19:22:00,,0824.4,5.04,0.00,24.8,23.6,00.0,33.5,26.7,10.6,0000.0,0013.26,0007.00,0006.00
2023-02-11 19:23:00,,0824.4,4.97,0.00,24.8,23.6,00.0,33.5,26.7,10.6,0000.0,0012.28,0006.81,0005.90
2023-02-11 19:24:00,,0824.2,5.03,0.00,24.8,23.6,00.0,33.5,26.7,10.7,0000.0,0012.00,0006.72,0005.81
2023-02-11 19:25:00,,0824.2,5.02,0.00,24.8,23.7,00.0,33.5,26.7,10.8,0000.0,0012.51,0006.71,0005.75
2023-02-11 19:26:00,,0824.2,4.98,0.00,24.8,23.7,00.0,33.5,26.7,10.8,0000.0,0012.58,0006.67,0005.73
2023-02-11 19:27:00,,0824.2,5.00,0.00,24.8,23.7,00.0,33.5,26.7,10.7,0000.0,0012.63,0006.67,0005.70
2023-02-11 19:28:00,,0824.3,5.01,0.00,24.8,23.7,00.0,33.5,26.7,10.6,0000.0,0012.97,0006.65,0005.67
2023-02-11 19:29:00,,0824.3,4.99,0.00,24.9,23.7,00.0,33.6,26.7,11.2,0000.0,0013.13,0006.67,0005.65
2023-02-11 19:30:00,,0824.2,4.99,0.00,24.9,23.7,00.0,33.6,26.7,11.0,0000.0,0012.98,0006.66,0005.66
2023-02-11 19:31:00,,0824.2,5.00,0.00,24.9,23.8,00.0,33.6,26.8,10.5,0000.0,0012.25,0006.60,0005.66
2023-02-11 19:32:00,,0824.2,5.00,0.00,24.9,23.8,00.0,33.6,26.8,10.5,0000.0,0012.39,0006.58,0005.64
2023-02-11 19:33:00,,0824.2,4.98,0.00,24.9,23.8,00.0,33.6,26.8,10.6,0000.0,0012.71,0006.55,0005.64
2023-02-11 19:34:00,,0824.1,5.03,0.00,24.9,23.8,00.0,33.6,26.8,11.1,0000.0,0012.68,0006.57,0005.63
2023-02-11 19:35:00,,0824.1,4.96,0.00,24.9,23.8,00.0,33.6,26.8,11.3,0000.0,0012.40,0006.55,0005.63
2023-02-11 19:36:00,,0824.2,4.97,0.00,24.9,23.8,00.0,33.6,26.8,11.2,0000.0,0012.18,0006.53,0005.65
2023-02-11 19:37:00,,0824.1,5.01,0.00,25.0,23.8,00.0,33.7,26.9,11.2,0000.0,0012.11,0006.50,0005.65
2023-02-11 19:38:00,,0824.1,5.00,0.00,25.0,23.8,00.0,33.7,26.9,11.1,0000.0,0012.93,0006.49,0005.66
2023-02-11 19:39:00,,0824.1,5.00,0.00,25.0,23.8,00.0,33.7,26.9,11.4,0000.0,0012.97,0006.58,0005.70
2023-02-11 19:40:00,,0824.1,5.02,0.00,25.0,23.8,00.0,33.7,26.9,11.4,0000.0,0013.18,0006.64,0005.77
2023-02-11 19:41:00,,0824.1,5.00,0.00,25.0,23.8,00.0,33.7,26.9,11.5,0000.0,0013.27,0006.70,0005.84
2023-02-11 19:42:00,,0824.1,5.02,0.00,25.0,23.8,00.0,33.7,26.9,11.4,0000.0,0013.49,0006.83,0005.94
2023-02-11 19:43:00,,0824.1,4.98,0.00,25.0,23.9,00.0,33.7,26.9,11.6,0000.0,0013.82,0006.93,0006.03
2023-02-11 19:44:00,,0824.1,4.99,0.00,25.0,23.9,00.0,33.7,26.9,11.5,0000.0,0013.79,0007.09,0006.14
2023-02-11 19:45:00,,0824.1,5.03,0.00,25.0,23.9,00.0,33.8,26.9,11.5,0000.0,0014.13,0007.23,0006.23
2023-02-11 19:46:00,,0824.1,5.00,0.00,25.1,23.9,00.0,33.8,27.0,11.5,0000.0,0014.55,0007.32,0006.32
2023-02-11 19:47:00,,0824.1,5.00,0.00,25.1,23.9,00.0,33.8,27.0,11.3,0000.0,0015.34,0007.40,0006.39
2023-02-11 19:48:00,,0824.1,4.99,0.00,25.1,23.9,00.0,33.8,27.0,11.3,0000.0,0015.86,0007.49,0006.48
2023-02-11 19:49:00,,0824.0,5.00,0.00,25.1,23.9,00.0,33.8,27.0,11.2,0000.0,0016.26,0007.58,0006.56
2023-02-11 19:50:00,,0824.0,4.98,0.00,25.1,23.9,00.0,33.8,27.0,11.1,0000.0,0017.02,0007.61,0006.61
2023-02-11 19:51:00,,0824.0,4.98,0.00,25.1,23.9,00.0,33.8,27.0,11.1,0000.0,0016.77,0007.64,0006.64
2023-02-11 19:52:00,,0824.0,5.01,0.00,25.1,23.9,00.0,33.8,27.0,11.1,0000.0,0016.94,0007.69,0006.65
2023-02-11 19:53:00,,0824.0,4.98,0.00,25.1,23.9,00.0,33.8,27.0,11.1,0000.0,0017.18,0007.70,0006.65
2023-02-11 19:54:00,,0823.9,5.01,0.00,25.1,23.9,00.0,33.8,27.0,10.9,0000.0,0017.39,0007.71,0006.67
2023-02-11 19:55:00,,0823.9,4.97,0.00,25.1,23.9,00.0,33.8,27.0,10.8,0000.0,0017.34,0007.66,0006.64
2023-02-11 19:56:00,,0823.9,5.01,0.00,25.1,23.9,00.0,33.8,27.0,11.2,0000.0,0018.29,0007.62,0006.63
2023-02-11 19:57:00,,0823.9,5.00,0.00,25.2,24.0,00.0,33.9,27.1,11.3,0000.0,0018.19,0007.65,0006.63
2023-02-11 19:58:00,,0823.9,5.00,0.00,25.2,24.0,00.0,33.9,27.1,11.2,0000.0,0017.47,0007.67,0006.65
2023-02-11 19:59:00,,0823.8,5.00,0.00,25.2,24.0,00.0,33.9,27.1,11.2,0000.0,0017.72,0007.72,0006.66
